Location: Dąbrówka
(52.2799°N, 15.8070°E)
Time: 15:05:36
(UTC+01:00)

ISS - Pass Details

Date: 27 January 2019
Orbit: 403 x 411 km, 51.6° (Epoch: 22 February)

Event Time Altitude Azimuth Distance (km) Brightness Sun altitude
Rises 18:21:12 0° 239° (WSW) 2,329 1.4 -16.2°
Reaches altitude 10° 18:23:19 10° 234° (SW) 1,472 0.0 -16.5°
Maximum altitude 18:26:30 47° 159° (SSE) 556 -3.3 -17.0°
Enters shadow 18:27:05 41° 125° (SE) 609 -3.3 -17.1°
